Weather History for Holland, MI

Change the Weather History Date:

Monday, February 18, 2013

  Actual Average Record
Temperature  
Mean Temperature 34 °F 29 °F  
Max Temperature 48 °F 36 °F 57 °F (1961)
Min Temperature 20 °F 22 °F -5 °F (1979)
Degree Days  
Heating Degree Days 31 36  
Month to date heating degree days 731 680  
Since 1 July heating degree days 3907 4154  
Cooling Degree Days 0 0  
Month to date cooling degree days 0 0  
Year to date cooling degree days 0 0  
Moisture  
Dew Point 28 °F    
Average Humidity 67    
Maximum Humidity 83    
Minimum Humidity 50    
Precipitation  
Precipitation 0.24 in 0.07 in 0.56 in (1961)
Month to date precipitation 1.71 1.03  
Year to date precipitation 4.87 3.12  
Sea Level Pressure  
Sea Level Pressure 29.73 in    
Wind  
Wind Speed 14 mph (SSE)    
Max Wind Speed 23 mph    
Max Gust Speed 32 mph    
Visibility 9 miles    
Events Rain    
T = Trace of Precipitation, MM = Missing Value Source: NWS Daily Summary

Daily Weather History Graph

Daily Weather History Graph

Search for Another Location

Airport:

Trip Planner

Search our weather history database for the weather conditions in past years. The results will help you decide how hot, cold, wet, or windy it might be!

Date:

Astronomy

Feb. 18, 2013 Rise Set
Actual Time 7:36 AM EST 6:20 PM EST
Civil Twilight 7:07 AM EST 6:49 PM EST
Nautical Twilight 6:35 AM EST 7:22 PM EST
Astronomical Twilight 6:02 AM EST 7:54 PM EST
Moon 12:01 PM EST (2/18) 2:19 AM EST (2/18)
Length of Visible Light 11h 41m
Length of Day
10h 43m
First Quarter, 58% of the Moon is Illuminated
Feb 18
First Quarter
Feb 25
Full
Mar 4
Last Quarter
Mar 11
New
Mar 19
First Quarter

Hourly Weather History & Observations

Time (EST) Temp. Windchill Dew Point Humidity Pressure Visibility Wind Dir Wind Speed Gust Speed Precip Events Conditions
12:53 AM 21.9 °F 11.7 °F 10.0 °F 60% 30.14 in 10.0 mi SSE 9.2 mph - N/A   Clear
1:53 AM 21.0 °F 9.3 °F 10.0 °F 63% 30.11 in 10.0 mi SE 11.5 mph - N/A   Clear
2:53 AM 24.1 °F 12.5 °F 12.0 °F 60% 30.08 in 10.0 mi SE 12.7 mph - N/A   Overcast
3:53 AM 26.1 °F 15.0 °F 10.9 °F 53% 30.05 in 10.0 mi SE 12.7 mph - N/A   Overcast
4:53 AM 26.1 °F 15.0 °F 12.0 °F 55% 30.01 in 10.0 mi SE 12.7 mph - N/A   Clear
5:53 AM 27.0 °F 15.2 °F 12.0 °F 53% 29.97 in 10.0 mi SE 15.0 mph - N/A   Clear
7:53 AM 28.9 °F 17.3 °F 14.0 °F 54% 29.90 in 10.0 mi SSE 16.1 mph - N/A   Clear
9:53 AM 32.0 °F 21.2 °F 17.1 °F 54% 29.86 in 10.0 mi SSE 16.1 mph 23.0 mph N/A   Clear
10:53 AM 36.0 °F 27.5 °F 19.9 °F 52% 29.84 in 10.0 mi SSE 12.7 mph - N/A   Clear
11:53 AM 39.0 °F 31.0 °F 23.0 °F 53% 29.81 in 10.0 mi SSE 13.8 mph - N/A   Clear
12:53 PM 42.1 °F 35.2 °F 26.1 °F 53% 29.78 in 10.0 mi SSE 12.7 mph - N/A   Clear
1:53 PM 45.0 °F 37.9 °F 28.0 °F 52% 29.71 in 10.0 mi SSE 16.1 mph - N/A   Clear
2:53 PM 46.0 °F 39.9 °F 30.0 °F 54% 29.69 in 10.0 mi SSE 13.8 mph - N/A   Clear
3:53 PM 48.0 °F - 32.0 °F 54% 29.68 in 10.0 mi South 12.7 mph - N/A   Mostly Cloudy
4:53 PM 46.0 °F 41.4 °F 33.1 °F 61% 29.65 in 10.0 mi SSE 9.2 mph - N/A   Overcast
5:05 PM 46.4 °F 41.5 °F 33.8 °F 62% 29.63 in 10.0 mi SSE 10.4 mph - N/A   Overcast
5:53 PM 45.0 °F 39.7 °F 35.1 °F 68% 29.63 in 10.0 mi SSE 10.4 mph - N/A   Overcast
6:53 PM 45.0 °F 38.5 °F 39.0 °F 80% 29.61 in 7.0 mi SSE 13.8 mph - 0.02 in Rain Light Rain
7:35 PM 44.6 °F 38.4 °F 39.2 °F 81% 29.58 in 6.0 mi SSE 12.7 mph - 0.01 in   Haze
7:51 PM 44.6 °F 37.4 °F 41.0 °F 87% 29.57 in 6.0 mi South 16.1 mph 25.3 mph 0.02 in Rain Light Rain
7:53 PM 46.0 °F 39.0 °F 41.0 °F 83% 29.59 in 7.0 mi South 17.3 mph 26.5 mph 0.02 in Rain Light Rain
8:53 PM 44.1 °F 37.1 °F 39.9 °F 85% 29.55 in 10.0 mi SSE 15.0 mph - 0.02 in   Overcast
9:53 PM 45.0 °F 37.9 °F 39.0 °F 80% 29.52 in 8.0 mi South 16.1 mph 25.3 mph 0.03 in Rain Light Rain
10:36 PM 44.6 °F 36.6 °F 39.2 °F 81% 29.46 in 8.0 mi SSE 19.6 mph - 0.06 in Rain Rain
10:53 PM 44.1 °F 36.5 °F 39.0 °F 82% 29.46 in 10.0 mi South 17.3 mph 24.2 mph 0.09 in Rain Light Rain
11:01 PM 44.6 °F 36.4 °F 39.2 °F 81% 29.44 in 10.0 mi SSE 20.7 mph 26.5 mph 0.01 in Rain Light Rain
11:53 PM 45.0 °F 37.4 °F 42.1 °F 90% 29.42 in 10.0 mi South 18.4 mph 29.9 mph 0.05 in Rain Light Rain